Date,TemperatureHighF,TemperatureAvgF,TemperatureLowF,DewpointHighF,DewpointAvgF,DewpointLowF,HumidityHigh,HumidityAvg,HumidityLow,PressureMaxIn,PressureMinIn,WindSpeedMaxMPH,WindSpeedAvgMPH,GustSpeedMaxMPH,PrecipitationSumIn
2013-1-1,17,11,3,3,-4,-7,86,51,37,30.46,30.32,21,-23,25,0.00
2013-1-2,18,10,3,0,-3,-9,65,54,40,30.60,30.43,21,-28,22,0.00
2013-1-3,33,12,-6,0,-9,-17,69,44,13,30.71,30.59,11,-29,12,0.00
2013-1-4,41,22,11,12,5,-2,70,51,25,30.59,30.25,9,-32,9,0.00
2013-1-5,30,25,11,1,-5,-18,57,28,14,30.46,30.25,24,1,28,0.00
2013-1-6,47,30,13,4,-11,-33,36,18,4,30.44,30.04,22,-6,27,0.00
2013-1-7,43,35,29,0,-9,-25,26,15,5,30.04,29.76,34,4,36,0.00
2013-1-8,33,27,22,15,11,-11,64,51,16,30.37,29.74,28,-9,39,0.00
2013-1-9,52,35,24,13,8,-1,57,34,14,30.42,30.03,18,-7,18,0.00
2013-1-10,43,31,21,14,4,-5,49,33,14,30.03,29.48,24,1,24,0.00
2013-1-11,33,16,4,17,0,-12,82,48,24,29.87,29.25,41,-12,51,0.01
2013-1-12,11,0,-13,-4,-13,-18,83,56,29,30.35,29.88,29,-21,29,0.00
2013-1-13,4,-4,-11,-3,-9,-17,92,79,69,30.58,30.35,8,-20,8,0.00
2013-1-14,10,-4,-13,-5,-14,-19,91,65,36,30.63,30.51,18,-51,24,0.00
2013-1-15,26,16,1,10,-1,-18,54,46,38,30.56,30.40,21,-25,31,0.00
2013-1-16,41,27,16,16,13,7,75,56,35,30.44,30.30,18,-14,29,0.00
2013-1-17,45,26,12,14,7,-4,77,48,19,30.62,30.35,16,-7,18,0.00
2013-1-18,40,34,28,4,-1,-6,34,23,15,30.36,30.06,35,-7,35,0.00
2013-1-19,42,32,27,3,0,-8,34,25,12,30.30,30.06,27,-1,31,0.00
2013-1-20,35,30,26,7,1,-3,34,28,21,30.30,30.12,33,-5,33,0.00
2013-1-21,37,30,24,9,2,-10,40,30,14,30.25,30.13,36,-4,40,0.00
2013-1-22,43,39,33,-8,-17,-41,16,9,2,30.19,30.04,46,-2,46,0.00
2013-1-23,50,42,30,8,-12,-52,35,11,1,30.19,30.06,43,8,45,0.00
2013-1-24,44,35,24,26,12,-4,74,42,19,30.13,29.91,32,-9,42,0.00
2013-1-25,42,36,32,26,23,20,72,60,49,30.15,30.01,35,-3,45,0.00
2013-1-26,45,35,28,28,23,19,93,62,38,30.01,29.68,26,-9,28,0.00
2013-1-27,40,34,28,28,25,19,93,71,44,29.72,29.64,36,-6,43,0.01
2013-1-28,35,24,15,22,17,12,92,77,51,29.68,29.56,29,-19,29,0.00
2013-1-29,16,10,4,13,-1,-8,90,62,41,30.21,29.66,26,-10,26,0.00
2013-1-30,22,14,4,14,5,-7,82,69,49,30.22,30.08,35,-16,41,0.01
2013-1-31,27,24,20,15,12,9,79,62,48,30.29,30.07,39,-7,52,0.00